New Orleans Lakefront, LA

4:06 PM CDT on September 16, 2019 (GMT -0500)
Lakefront

Weather History for KNEW - August, 2019

Change the Weather History Date:

Sunday, August 25, 2019

  Actual Average Record
Temperature  
Mean Temperature 82 °F 83 °F  
Max Temperature 86 °F 91 °F 97 °F (1990)
Min Temperature 77 °F 75 °F 65 °F (1966)
Degree Days  
Heating Degree Days 0 0  
Month to date heating degree days 0 0  
Since 1 June heating degree days 0 0  
Since 1 July heating degree days 0 0  
Cooling Degree Days 17 18  
Month to date cooling degree days 520 450  
Year to date cooling degree days 2518 2130  
Since 1 June cooling degree days 1703 1511  
Growing Degree Days 30 (Base 50)    
Moisture  
Dew Point 74 °F    
Average Humidity 81    
Maximum Humidity 91    
Minimum Humidity 70    
Precipitation  
Precipitation 0.04 in 0.18 in 1.52 in (1992)
Month to date precipitation 2.82 4.84  
Year to date precipitation 45.69 43.07  
Snow  
Snow 0.00 in - - ()
Month to date snowfall 0.0  
Since 1 June snowfall 0.0  
Since 1 July snowfall 0.0  
Snow Depth 0.00 in    
Sea Level Pressure  
Sea Level Pressure 29.91 in    
Wind  
Wind Speed 6 mph (South)    
Max Wind Speed 22 mph    
Max Gust Speed 27 mph    
Visibility 9 miles    
Events Rain    
T = Trace of Precipitation, MM = Missing Value Source: NWS Daily Summary

Daily Weather History Graph

Daily Weather History Graph

Search for Another Location

Airport or City:

Astronomy

Aug. 25, 2019 Rise Set
Actual Time 6:33 AM CDT 7:30 PM CDT
Civil Twilight 6:08 AM CDT 7:55 PM CDT
Nautical Twilight 5:39 AM CDT 8:24 PM CDT
Astronomical Twilight 5:09 AM CDT 8:54 PM CDT
Moon 1:20 AM CDT (8/25) 3:37 PM CDT (8/25)
Length of Visible Light 13h 47m
Length of Day
12h 57m
Waning Crescent, 29% of the Moon is Illuminated
Aug 25
Waning Crescent
Aug 30
New
Sep 5
First Quarter
Sep 13
Full
Sep 21
Last Quarter

Hourly Weather History & Observations

Time (CDT) Temp. Heat Index Dew Point Humidity Pressure Visibility Wind Dir Wind Speed Gust Speed Precip Events Conditions
12:53 AM 81.0 °F 86.7 °F 75.0 °F 82% 29.94 in 10.0 mi ESE 4.6 mph - N/A   Overcast
1:53 AM 81.0 °F 87.3 °F 75.9 °F 85% 29.94 in 10.0 mi ESE 3.5 mph - N/A   Overcast
2:53 AM 81.0 °F 87.3 °F 75.9 °F 85% 29.92 in 10.0 mi ESE 4.6 mph - N/A   Clear
3:53 AM 80.1 °F 85.4 °F 75.9 °F 87% 29.92 in 10.0 mi ESE 4.6 mph - N/A   Partly Cloudy
4:53 AM 81.0 °F 87.9 °F 77.0 °F 88% 29.90 in 10.0 mi East 3.5 mph - N/A   Partly Cloudy
5:53 AM 80.1 °F 84.2 °F 73.0 °F 79% 29.91 in 10.0 mi WSW 6.9 mph - N/A   Clear
6:53 AM 78.1 °F - 73.0 °F 84% 29.92 in 10.0 mi South 8.1 mph - N/A   Clear
7:53 AM 78.1 °F - 73.0 °F 84% 29.93 in 10.0 mi SE 8.1 mph - N/A   Partly Cloudy
8:53 AM 79.0 °F - 75.0 °F 88% 29.94 in 9.0 mi East 5.8 mph - 0.01 in Rain Light Rain
9:53 AM 82.0 °F 88.6 °F 75.0 °F 79% 29.95 in 10.0 mi SE 6.9 mph - 0.00 in   Scattered Clouds
10:53 AM 84.0 °F 91.2 °F 73.9 °F 72% 29.94 in 10.0 mi SSW 8.1 mph - N/A   Scattered Clouds
11:53 AM 84.0 °F 90.2 °F 73.0 °F 69% 29.96 in 10.0 mi SSW 9.2 mph - N/A   Mostly Cloudy
12:53 PM 84.0 °F 89.6 °F 72.0 °F 67% 29.94 in 10.0 mi South 9.2 mph - N/A   Overcast
1:53 PM 82.9 °F 89.4 °F 73.9 °F 74% 29.93 in 8.0 mi SW 12.7 mph - 0.00 in   Overcast
2:53 PM 82.9 °F 88.8 °F 73.0 °F 72% 29.89 in 10.0 mi SSW 9.2 mph - 0.00 in   Overcast
3:53 PM 84.9 °F 90.7 °F 72.0 °F 65% 29.87 in 10.0 mi SSW 13.8 mph - N/A   Partly Cloudy
4:53 PM 84.9 °F 90.7 °F 72.0 °F 65% 29.87 in 10.0 mi South 9.2 mph - N/A   Mostly Cloudy
5:40 PM 80.1 °F 84.5 °F 73.9 °F 81% 29.88 in 10.0 mi West 15.0 mph - 0.00 in Rain Light Rain
5:53 PM 80.1 °F 84.5 °F 73.9 °F 81% 29.86 in 10.0 mi West 13.8 mph - 0.00 in   Mostly Cloudy
6:53 PM 78.1 °F - 75.0 °F 90% 29.87 in 3.0 mi South 13.8 mph - 0.03 in Rain Rain
7:53 PM 78.1 °F - 75.0 °F 90% 29.88 in 9.0 mi SSW 8.1 mph - 0.10 in Rain Light Rain
8:53 PM 78.1 °F - 75.0 °F 90% 29.89 in 10.0 mi SSE 8.1 mph - 0.00 in   Scattered Clouds
9:53 PM 77.0 °F - 73.9 °F 90% 29.90 in 9.0 mi SSE 8.1 mph - N/A   Mostly Cloudy
10:53 PM 77.0 °F - 73.9 °F 90% 29.90 in 9.0 mi SSE 8.1 mph - N/A   Partly Cloudy
11:53 PM 78.1 °F - 75.0 °F 90% 29.89 in 8.0 mi SSE 9.2 mph - N/A   Clear